[Iaude] MPEC E193: 2024 EL4 [a=1.83,e=0.49,i=9.5,H=24.9]

mpec at cfa.harvard.edu mpec at cfa.harvard.edu
Fri Mar 15 12:21:00 EDT 2024


M.P.E.C. 2024-E193                               Issued 2024 March 15, 16:19 UT

     The Minor Planet Electronic Circulars contain information on unusual
         minor planets, routine data on comets and natural satellites,
         and occasional editorial announcements.  They are published
    on behalf of Division F of the International Astronomical Union by the
          Minor Planet Center, Smithsonian Astrophysical Observatory,
                          Cambridge, MA 02138, U.S.A.
			  
             Prepared using the Tamkin Foundation Computer Network

                              MPC at CFA.HARVARD.EDU
            URL https://www.minorplanetcenter.net/    ISSN 1523-6714

                                    2024 EL4                                    


Observations:
     K24E04L  C2024 03 01.39860910 55 13.064-22 47 36.54         21.79GVEE193F52
     K24E04L  C2024 03 01.41948810 55 15.454-22 48 04.08         22.92GVEE193F52
     K24E04L  C2024 03 01.42990010 55 16.612-22 48 16.99         22.92GVEE193F52
     K24E04L*2C2024 03 14.21455812 02 06.021-29 03 12.19         20.4 GXEE193W57
     K24E04L 2C2024 03 14.22271512 02 11.159-29 03 31.14         20.4 GXEE193W57
     K24E04L 2C2024 03 14.23271312 02 17.651-29 03 55.33         20.5 GXEE193W57
     K24E04L 0C2024 03 14.78351112 09 02.243-29 26 14.50         19.7 GVEE193K91
     K24E04L 0C2024 03 14.79150012 09 08.183-29 26 37.54         19.6 GVEE193K92
     K24E04L 0C2024 03 14.79387212 09 09.902-29 26 44.29         19.7 GVEE193K92
     K24E04L 0C2024 03 14.79629312 09 11.682-29 26 51.01         19.8 GVEE193K92
     K24E04L 0C2024 03 14.79993712 09 14.369-29 27 01.23         20.0 GVEE193K92
     K24E04L 0C2024 03 14.80121412 09 15.300-29 27 04.63         20.6 GVEE193K93
     K24E04L 0C2024 03 14.80261612 09 16.339-29 27 08.89         20.2 GVEE193K92
     K24E04L 0C2024 03 14.80547812 09 18.462-29 27 16.50         20.5 GVEE193K93
     K24E04L 0C2024 03 14.81000912 09 21.774-29 27 29.40         20.9 GVEE193K93
     K24E04L 0C2024 03 14.90428912 10 30.543-29 31 46.41         20.7 GVEE193K92
     K24E04L 0C2024 03 14.90762812 10 32.965-29 31 55.23         20.6 GVEE193K92
     K24E04L 0C2024 03 14.91093812 10 35.365-29 32 04.02         20.6 GVEE193K92
     K24E04L 7C2024 03 15.02222812 11 59.997-29 38 47.28         20.3 GVEE193Z84
     K24E04L 7C2024 03 15.02534112 12 02.341-29 38 55.42         19.7 GVEE193Z84
     K24E04L 0C2024 03 15.11713112 13 12.648-29 42 38.66         19.9 GVEE193Z24
     K24E04L 0C2024 03 15.11948412 13 14.423-29 42 44.44         19.9 GVEE193Z24
     K24E04L 0C2024 03 15.12254912 13 16.722-29 42 51.98         20.1 GVEE193Z24
     K24E04L |C2024 03 15.16803012 13 58.810-29 43 00.90         20.9 GVEE193807
     K24E04L |C2024 03 15.17023012 14 00.490-29 43 07.30         20.9 GVEE193807
     K24E04L |C2024 03 15.17243012 14 02.160-29 43 12.80         20.9 GVEE193807

Observer details:
807 Cerro Tololo Observatory, La Serena.  Observers T. Linder, R. Holmes.
    0.61-m f/6.8 Ritchey-Chretien + CCD.
F52 Pan-STARRS 2, Haleakala.  Observers J. Herman, T. Lowe, P. Minguez, A.
    Schultz, I. Smith.  Measurers K. Chambers, T. de Boer, J. Fairlamb, H.
    Gao, M. Huber, C.-C. Lin, E. Magnier, Y. Ramanjooloo, R. Wainscoat, R.
    Weryk.  1.8-m Ritchey-Chretien + CCD.
K91 Sutherland-LCO A.  Observers T. Santana-Ros, M. Micheli, F. Ocana, M.
    Devogele, L. Conversi.  Measurer M. Micheli.  1.0-m reflector + CCD.
K92 Sutherland-LCO B.  Observers T. Santana-Ros, M. Micheli, F. Ocana, M.
    Devogele, L. Conversi.  Measurer M. Micheli.  1.0-m reflector + CCD.
K93 Sutherland-LCO C.  Observers T. Santana-Ros, M. Micheli, F. Ocana, M.
    Devogele, L. Conversi.  Measurer M. Micheli.  1.0-m reflector + CCD.
W57 ESA TBT La Silla Observatory.  Observers R. Kresken, F. Ocana, M.
    Micheli, L. Conversi, F. Gianotto, R. Moissl.  Measurers R. Kresken, F.
    Ocana, M. Micheli, D. Fohring, M. Devogele.  0.56-m f/2.52 astrograph
    prime-focus corrector + 4K CCD.
Z24 Tenerife Observatory-LCO B, Tenerife.  Observers T. Santana-Ros, M.
    Micheli, F. Ocana, M. Devogele, L. Conversi.  Measurer M. Micheli.
    1.0-m reflector + CCD.
Z84 Calar Alto-Schmidt.  Observers F. Ocana, R. Kresken, M. Micheli, L.
    Conversi.  Measurers F. Ocana, M. Micheli, R. Kresken.  0.8-m f/3
    Schmidt + CCD.

Orbital elements:
2024 EL4                                                 Earth MOID = 0.0067 AU
Epoch 2024 Mar. 31.0 TT = JDT 2460400.5                 Bell                    
M 350.49127              (2000.0)            P               Q                  
n   0.39683005     Peri.   38.48377     -0.71446423     +0.69945998             
a   1.8340015      Node   185.98980     -0.67583600     -0.69628532             
e   0.4889856      Incl.    9.49955     -0.18107061     -0.16106671             
P   2.48           H   24.91          G   0.15           U   8                  
Residuals in seconds of arc
240301 F52  0.1+  0.1+    240314 K92  0.1-  0.1-    240315 Z84  0.3-  0.1+
240301 F52  0.2+  0.3-    240314 K92  0.0   0.1-    240315 Z84  0.2+  0.1-
240301 F52  0.2-  0.2+    240314 K93  0.2-  0.0     240315 Z24  0.1-  0.1-
240314 W57  0.4+  1.2-    240314 K92  0.0   0.3-    240315 Z24  0.0   0.1-
240314 W57  0.4-  0.0     240314 K93  0.3+  0.1+    240315 Z24  0.1-  0.1-
240314 W57  1.1+  0.4+    240314 K93  0.1+  0.2-    240315 807  0.0   0.1+
240314 K91  0.5-  0.6+    240314 K92  0.1+  0.0     240315 807  0.1+  0.4-
240314 K92  0.2+  0.0     240314 K92  0.1+  0.0     240315 807  0.0   0.1-
240314 K92  0.1-  0.2-    240314 K92  0.0   0.0

Ephemeris:
2024 EL4                 a,e,i = 1.83, 0.49, 9                   q = 0.9372
Date    TT    R. A. (2000) Decl.     Delta      r    Elong.  Phase     V
2024 02 14    10 33 44.9 -17 51 13   0.2945  1.2441   146.7    25.8    23.9
...
2024 02 29    10 52 13.0 -22 18 00   0.1740  1.1441   149.7    25.9    22.6
...
2024 03 08    11 16 36.3 -25 27 50   0.1168  1.0950   149.6    27.3    21.7
...
2024 03 14    11 59 40.9 -28 54 21   0.07770 1.0609   148.0    29.7    20.8
2024 03 15    12 11 41.3 -29 35 56   0.07168 1.0555   147.4    30.5    20.6
2024 03 16    12 26 01.8 -30 18 23   0.06586 1.0502   146.4    31.6    20.5
...
2024 03 22    15 16 05.0 -30 15 43   0.03983 1.0203   126.0    52.2    19.9
...
2024 03 30    19 32 37.3 -02 16 53   0.05613 0.9863    75.7   101.1    22.3
...
2024 04 14    21 13 02.1 +12 23 16   0.1466  0.9453    62.9   109.1    24.7

M. P. C. Staff               (C) Copyright 2024 MPC           M.P.E.C. 2024-E193





More information about the Iaude mailing list